Location: Cuzcurrita-R�o Tir�n
(42.5415°N, 2.9642°W)
Time: 01:54:17
(UTC+00:00)

CZ-4B R/B - Pass Details

Date: 17 January 2021
Orbit: 387 x 458 km, 97.6° (Epoch: 08 March)

Event Time Altitude Azimuth Distance (km) Brightness Sun altitude
Exits shadow 18:46:06 - 0° (N) 2,262 4.8 -18.0°
Reaches altitude 10° 18:47:46 10° 351° (N) 1,597 4.1 -18.3°
Maximum altitude 18:50:48 30° 289° (WNW) 834 3.3 -18.9°
Drops below altitude 10° 18:53:45 10° 227° (SW) 1,555 4.9 -19.4°
Sets 18:55:53 0° 216° (SW) 2,406 5.8 -19.8°
